Zurück zum Katalog

ION SCV-011

AktivWissenschaftPO
NORAD 56957·PAYLOAD·🇮🇹 Italy

Gestartet Jun 12, 2023 von Vandenberg Space Force Base

Loading…

Nächste Überflüge (nächste 24 Stunden)

TLE

AktuellSource: Space-Track

Epoche: Sep 14, 2026, 01:21 UTC

1 56957U 23084AB  26257.05639279  .00004098  00000-0  14592-3 0  9997
2 56957  98.1357  92.6288 0008482  88.5716 271.6493 15.29582456179397

Verfolge ION SCV-011 in Echtzeit mit AllMySat

Download on the App Store